User: anonymous   Login
Location: Cz?stochówka
(50.8142°N, 19.0915°E)
Time: 13:07:33
(UTC+00:00)
Language:

Cosmos 1992 Rocket - Orbit

View from above orbital plane
View from above orbital plane
View from above satellite
View from above satellite

Ground track
Ground track

The orbit is defined by the following mean orbital elements,

1 19770U          26073.33930955 +.00000000 +00000-0 +70552-4 0 00005
2 19770  74.0433 282.4018 0005569 285.8764 246.7650 14.40310515    01
Epoch (UTC): 14 March 2026 08:08:36
Eccentricity: 0.0005569
inclination: 74.0433°
perigee height: 753 km
apogee height: 761 km
right ascension of ascending node: 282.4018°
argument of perigee: 285.8764°
revolutions per day: 14.40310515
mean anomaly at epoch: 246.7650°

The dashed part of the orbit path shows where the satellite is in the earth's shadow,  

DLR